User: anonymous   Login
Location: Fort Wayne
(41.1310°N, 85.1290°W)
Time: 16:55:15
(UTC-04:00)
Language:

OAO 2 Rocket - Orbit

View from above orbital plane
View from above orbital plane
View from above satellite
View from above satellite

Ground track
Ground track

The orbit data is extracted from the following two-line orbital elements,

1  3598U 68110B   17178.85348655 +.00000042 +00000-0 +14415-4 0  9994
2  3598 034.9939 276.9875 0049952 313.8966 045.7608 14.54313489547124
Epoch (UTC): 27 June 2017 20:29:01
Eccentricity: 0.0049952
inclination: 34.9939°
perigee height: 676 km
apogee height: 747 km
right ascension of ascending node: 276.9875°
argument of perigee: 313.8966°
revolutions per day: 14.54313489
mean anomaly at epoch: 45.7608°
orbit number at epoch: 54712

The dashed part of the orbit path shows where the satellite is in the earth's shadow,  

DLR